{"data":{"norad_id":48294,"epoch":"2026-05-25T02:13:06.879936Z","epoch_age_seconds":73891,"freshness":"FRESH","line1":"1 48294U 21036U   26145.09244074 -.00000747  00000+0 -12314-4 0  9991","line2":"2 48294  53.1612  80.0096 0001181  80.3550 279.7585 15.31690701280110","mean_motion":15.31690701,"eccentricity":0.0001181,"inclination_deg":53.1612,"raan_deg":80.0096,"arg_perigee_deg":80.355,"mean_anomaly_deg":279.7585,"bstar":-1.2314e-5,"rev_number":28011,"period_min":94.013758721644,"perigee_km":469.95885955414,"apogee_km":471.57657084787,"semimajor_km":6848.904715201,"source":"CELESTRAK","updated_at":"2026-05-25T13:38:16.675188Z"}}